Voltar ao catálogo

TAIJING-2 04

AtivoCiênciaSSO
NORAD 58820·PAYLOAD·🇨🇳 China

Lançado Jan 23, 2024 de Jiuquan Satellite Launch Center

Loading…

Próximas Passagens (próximas 24 horas)

TLE

AtualizadoSource: Space-Track

Época: Sep 14, 2026, 22:25 UTC

1 58820U 24016A   26257.93403968  .00043038  00000-0  51785-3 0  9997
2 58820  97.4472 357.2952 0005832  85.2978 274.8945 15.60702980148042

Acompanhe TAIJING-2 04 em tempo real com AllMySat

Download on the App Store